Location: Poughquag
(41.6090°N, 73.6820°W)
Time: 10:24:02
(UTC-05:00)

SR - Pass Details

Date: 16 December 2023
Orbit: 574 x 868 km, 66.7° (Epoch: 25 February)

Event Time Altitude Azimuth Distance (km) Brightness Sun altitude
Rises 15:57:53 0° 337° (NNW) 3,448 ? 3.5°
Reaches altitude 10° 16:00:58 10° 352° (N) 2,486 ? 3.0°
Maximum altitude 16:05:28 23° 43° (NE) 1,694 ? 2.3°
Drops below altitude 10° 16:09:46 10° 95° (E) 2,364 ? 1.7°
Sets 16:12:36 0° 110° (ESE) 3,238 ? 1.2°
